UAL1881 KSFO-MMSD

Flight info

Callsign UAL1881
Flight time N/A
Altitude 37000
Route WESLA5 YYUNG LAX TIJ UT6 IMUSU UT25 LTO ENEKO ENEKO1A
Aircraft B738/M-SDE2E3FGHIRWXY/LB1

Departure

Time N/A
Airport San Francisco International Airport (KSFO)

Arrival

Time 2026-05-03 21:17
Airport Los Cabos International Airport (MMSD)
Time Latitude Longitude Altitude Speed Heading
2026-05-03 20:15 29.20215 -113.89598 36957 ft 489 kts 152°
2026-05-03 20:15 29.14821 -113.84814 36975 ft 490 kts 152°
2026-05-03 20:16 29.09406 -113.80015 36975 ft 493 kts 152°
2026-05-03 20:16 29.03962 -113.75188 36947 ft 496 kts 152°
2026-05-03 20:17 28.98482 -113.70367 36948 ft 497 kts 152°
2026-05-03 20:17 28.92987 -113.65534 36946 ft 499 kts 152°
2026-05-03 20:18 28.87530 -113.60729 36956 ft 499 kts 152°
2026-05-03 20:18 28.82034 -113.55890 36938 ft 498 kts 152°
2026-05-03 20:19 28.76565 -113.51081 36946 ft 496 kts 152°
2026-05-03 20:19 28.71106 -113.46289 36949 ft 495 kts 152°
2026-05-03 20:20 28.65654 -113.41513 36950 ft 492 kts 152°
2026-05-03 20:20 28.60274 -113.36809 36947 ft 490 kts 152°
2026-05-03 20:21 28.54857 -113.32066 36944 ft 491 kts 152°
2026-05-03 20:21 28.49429 -113.27331 36947 ft 490 kts 152°
2026-05-03 20:22 28.43967 -113.22716 36967 ft 490 kts 152°
2026-05-03 20:22 28.38565 -113.18003 36943 ft 488 kts 154°
2026-05-03 20:23 28.33152 -113.13381 36963 ft 493 kts 150°
2026-05-03 20:23 28.27753 -113.08541 36963 ft 495 kts 151°
2026-05-03 20:24 28.22293 -113.03741 36966 ft 496 kts 151°
2026-05-03 20:24 28.16802 -112.98981 36955 ft 497 kts 152°
2026-05-03 20:25 28.11297 -112.94236 36959 ft 498 kts 152°
2026-05-03 20:25 28.05784 -112.89469 36961 ft 499 kts 151°
2026-05-03 20:26 28.00256 -112.84695 36975 ft 500 kts 152°
2026-05-03 20:26 27.94757 -112.79955 36952 ft 500 kts 151°
2026-05-03 20:27 27.89220 -112.75206 36968 ft 498 kts 151°
2026-05-03 20:27 27.83716 -112.70476 36963 ft 496 kts 151°
2026-05-03 20:28 27.78232 -112.65768 36971 ft 494 kts 151°
2026-05-03 20:28 27.72768 -112.61084 36974 ft 493 kts 151°
2026-05-03 20:29 27.67306 -112.56410 36972 ft 492 kts 151°
2026-05-03 20:29 27.61897 -112.51754 36976 ft 493 kts 149°
2026-05-03 20:30 27.56458 -112.47048 36967 ft 492 kts 152°
2026-05-03 20:30 27.50966 -112.42453 36977 ft 492 kts 152°
2026-05-03 20:31 27.45481 -112.37796 36967 ft 494 kts 151°
2026-05-03 20:31 27.40007 -112.33122 36976 ft 494 kts 151°
2026-05-03 20:32 27.34548 -112.28499 36973 ft 494 kts 151°
2026-05-03 20:32 27.28915 -112.24101 36977 ft 489 kts 157°
2026-05-03 20:33 27.23086 -112.20166 36971 ft 488 kts 158°
2026-05-03 20:33 27.17237 -112.16243 36980 ft 489 kts 158°
2026-05-03 20:34 27.11415 -112.12262 36981 ft 490 kts 157°
2026-05-03 20:34 27.05629 -112.08273 36980 ft 491 kts 157°
2026-05-03 20:35 26.99814 -112.04264 36982 ft 490 kts 157°
2026-05-03 20:35 26.94977 -112.00937 36975 ft 490 kts 157°
2026-05-03 20:36 26.89163 -111.96956 36979 ft 490 kts 157°
2026-05-03 20:36 26.83343 -111.92953 36976 ft 490 kts 157°
2026-05-03 20:37 26.77530 -111.88970 36987 ft 490 kts 157°
2026-05-03 20:37 26.71718 -111.84993 36988 ft 490 kts 157°
2026-05-03 20:38 26.65896 -111.81015 36994 ft 489 kts 156°
2026-05-03 20:38 26.60083 -111.77053 36990 ft 489 kts 156°
2026-05-03 20:39 26.54311 -111.73120 36995 ft 489 kts 156°
2026-05-03 20:39 26.48502 -111.69162 36991 ft 489 kts 157°
2026-05-03 20:40 26.42685 -111.65204 36996 ft 489 kts 156°
2026-05-03 20:40 26.36872 -111.61253 36991 ft 489 kts 156°
2026-05-03 20:41 26.31057 -111.57303 36989 ft 489 kts 156°
2026-05-03 20:41 26.25254 -111.53367 36992 ft 488 kts 156°
2026-05-03 20:42 26.19446 -111.49434 36991 ft 488 kts 156°
2026-05-03 20:42 26.13668 -111.45522 36991 ft 488 kts 156°
2026-05-03 20:43 26.07858 -111.41593 36985 ft 488 kts 156°
2026-05-03 20:43 26.02045 -111.37667 36996 ft 489 kts 156°
2026-05-03 20:44 25.96453 -111.33273 36988 ft 502 kts 142°
2026-05-03 20:44 25.91643 -111.27660 36991 ft 505 kts 138°
2026-05-03 20:45 25.86876 -111.21910 36991 ft 506 kts 139°
2026-05-03 20:45 25.82074 -111.16199 36990 ft 506 kts 139°
2026-05-03 20:46 25.77233 -111.10514 36989 ft 505 kts 139°
2026-05-03 20:46 25.72392 -111.04854 36989 ft 505 kts 139°
2026-05-03 20:47 25.67557 -110.99207 36991 ft 505 kts 139°
2026-05-03 20:47 25.62717 -110.93559 36990 ft 505 kts 139°
2026-05-03 20:48 25.57903 -110.87945 36991 ft 504 kts 139°
2026-05-03 20:48 25.53034 -110.82273 36990 ft 505 kts 139°
2026-05-03 20:49 25.48226 -110.76681 36992 ft 505 kts 139°
2026-05-03 20:49 25.43378 -110.71049 36994 ft 505 kts 139°
2026-05-03 20:50 25.38524 -110.65415 36990 ft 505 kts 139°
2026-05-03 20:50 25.33667 -110.59788 36986 ft 505 kts 139°
2026-05-03 20:51 25.28842 -110.54205 36997 ft 505 kts 139°
2026-05-03 20:51 25.23959 -110.48559 37003 ft 506 kts 139°
2026-05-03 20:52 25.19130 -110.42980 36999 ft 506 kts 139°
2026-05-03 20:52 25.14264 -110.37369 37001 ft 506 kts 139°
2026-05-03 20:53 25.09391 -110.31758 36999 ft 506 kts 139°
2026-05-03 20:53 25.04521 -110.26158 37001 ft 506 kts 139°
2026-05-03 20:54 24.99624 -110.20534 36498 ft 512 kts 139°
2026-05-03 20:54 24.94702 -110.14882 35326 ft 510 kts 138°
2026-05-03 20:54 24.92247 -110.12065 34689 ft 510 kts 138°
2026-05-03 20:55 24.89813 -110.09277 34034 ft 511 kts 138°
2026-05-03 20:55 24.87347 -110.06455 33360 ft 512 kts 137°
2026-05-03 20:55 24.84869 -110.03620 32662 ft 513 kts 137°
2026-05-03 20:55 24.82394 -110.00790 31943 ft 514 kts 137°
2026-05-03 20:56 24.79909 -109.97948 31194 ft 515 kts 137°
2026-05-03 20:56 24.77426 -109.95110 30589 ft 513 kts 137°
2026-05-03 20:56 24.74964 -109.92299 30063 ft 508 kts 137°
2026-05-03 20:56 24.72521 -109.89512 29525 ft 503 kts 137°
2026-05-03 20:57 24.70101 -109.86750 28987 ft 499 kts 137°
2026-05-03 20:57 24.67707 -109.84020 28438 ft 494 kts 137°
2026-05-03 20:57 24.65322 -109.81302 27896 ft 490 kts 137°
2026-05-03 20:57 24.62967 -109.78621 27358 ft 486 kts 137°
2026-05-03 20:58 24.60624 -109.75950 26822 ft 482 kts 137°
2026-05-03 20:58 24.58334 -109.73336 26291 ft 478 kts 137°
2026-05-03 20:58 24.56001 -109.70687 25750 ft 474 kts 137°
2026-05-03 20:58 24.53745 -109.68131 25227 ft 469 kts 137°
2026-05-03 20:59 24.51482 -109.65566 24699 ft 466 kts 137°
2026-05-03 20:59 24.49242 -109.63026 24165 ft 460 kts 137°
2026-05-03 20:59 24.47016 -109.60516 23654 ft 457 kts 137°
2026-05-03 20:59 24.44814 -109.58010 23119 ft 451 kts 136°
2026-05-03 21:00 24.42645 -109.55546 22605 ft 446 kts 137°
2026-05-03 21:00 24.41218 -109.53932 22265 ft 443 kts 136°
2026-05-03 21:00 24.38363 -109.50704 21587 ft 438 kts 136°
2026-05-03 21:00 24.36246 -109.48311 21084 ft 436 kts 136°
2026-05-03 21:01 24.34103 -109.45973 20579 ft 431 kts 143°
2026-05-03 21:01 24.31546 -109.44364 20070 ft 419 kts 165°
2026-05-03 21:01 24.28741 -109.43714 19632 ft 408 kts 179°
2026-05-03 21:01 24.25951 -109.43843 19167 ft 397 kts 194°
2026-05-03 21:02 24.23308 -109.44478 18742 ft 391 kts 197°
2026-05-03 21:02 24.20676 -109.45186 18291 ft 387 kts 197°
2026-05-03 21:02 24.18064 -109.45898 17853 ft 384 kts 197°
2026-05-03 21:02 24.15479 -109.46593 17423 ft 382 kts 197°
2026-05-03 21:03 24.12906 -109.47270 16988 ft 379 kts 197°
2026-05-03 21:03 24.10346 -109.47933 16561 ft 376 kts 196°
2026-05-03 21:03 24.07801 -109.48586 16134 ft 374 kts 196°
2026-05-03 21:03 24.05281 -109.49229 15709 ft 371 kts 196°
2026-05-03 21:04 24.02773 -109.49868 15289 ft 367 kts 196°
2026-05-03 21:04 24.00315 -109.50494 14872 ft 365 kts 196°
2026-05-03 21:04 23.97819 -109.51129 14462 ft 362 kts 196°
2026-05-03 21:04 23.95404 -109.51743 14057 ft 360 kts 196°
2026-05-03 21:05 23.92972 -109.52362 13652 ft 357 kts 196°
2026-05-03 21:05 23.90566 -109.52982 13255 ft 354 kts 197°
2026-05-03 21:05 23.88208 -109.53743 12848 ft 351 kts 201°
2026-05-03 21:05 23.85900 -109.54603 12453 ft 348 kts 202°
2026-05-03 21:06 23.83622 -109.55480 12057 ft 345 kts 202°
2026-05-03 21:06 23.81368 -109.56346 11665 ft 341 kts 201°
2026-05-03 21:06 23.79136 -109.57192 11279 ft 338 kts 201°
2026-05-03 21:06 23.76927 -109.58022 11001 ft 332 kts 201°
2026-05-03 21:07 23.74805 -109.58812 10921 ft 320 kts 200°
2026-05-03 21:07 23.72745 -109.59574 10831 ft 303 kts 200°
2026-05-03 21:07 23.70796 -109.60295 10706 ft 287 kts 200°
2026-05-03 21:07 23.68937 -109.60982 10391 ft 279 kts 200°
2026-05-03 21:08 23.67104 -109.61660 9876 ft 279 kts 200°
2026-05-03 21:08 23.65236 -109.62350 9140 ft 287 kts 199°
2026-05-03 21:08 23.63328 -109.63053 8551 ft 289 kts 199°
2026-05-03 21:08 23.61431 -109.63751 8126 ft 286 kts 199°
2026-05-03 21:09 23.59563 -109.64440 7714 ft 281 kts 199°
2026-05-03 21:09 23.57717 -109.65120 7259 ft 279 kts 199°
2026-05-03 21:09 23.55883 -109.65796 6778 ft 277 kts 198°
2026-05-03 21:09 23.54082 -109.66459 6342 ft 275 kts 198°
2026-05-03 21:10 23.52281 -109.67117 5913 ft 271 kts 198°
2026-05-03 21:10 23.50502 -109.67769 5441 ft 269 kts 198°
2026-05-03 21:10 23.48732 -109.68419 5005 ft 268 kts 198°
2026-05-03 21:10 23.46973 -109.69067 4657 ft 265 kts 198°
2026-05-03 21:11 23.45243 -109.69702 4411 ft 260 kts 198°
2026-05-03 21:11 23.43552 -109.70322 4296 ft 253 kts 198°
2026-05-03 21:11 23.41904 -109.70926 4169 ft 247 kts 197°
2026-05-03 21:11 23.40290 -109.71515 4059 ft 241 kts 198°
2026-05-03 21:12 23.38719 -109.72097 3956 ft 235 kts 198°
2026-05-03 21:12 23.37201 -109.72656 3874 ft 224 kts 198°
2026-05-03 21:12 23.35745 -109.73189 3771 ft 218 kts 198°
2026-05-03 21:12 23.34329 -109.73709 3584 ft 217 kts 198°
2026-05-03 21:13 23.32870 -109.74128 3370 ft 214 kts 182°
2026-05-03 21:13 23.31429 -109.73955 3153 ft 209 kts 173°
2026-05-03 21:13 23.29996 -109.73772 2928 ft 206 kts 174°
2026-05-03 21:13 23.28578 -109.73606 2714 ft 203 kts 174°
2026-05-03 21:14 23.27197 -109.73451 2436 ft 194 kts 173°
2026-05-03 21:14 23.25899 -109.73303 2208 ft 182 kts 173°
2026-05-03 21:14 23.24687 -109.73165 2044 ft 164 kts 172°
2026-05-03 21:14 23.23617 -109.73039 1974 ft 151 kts 170°
2026-05-03 21:15 23.22558 -109.72910 1621 ft 149 kts 169°
2026-05-03 21:15 23.21538 -109.72793 1415 ft 146 kts 170°
2026-05-03 21:15 23.20531 -109.72679 1220 ft 145 kts 171°
2026-05-03 21:15 23.19528 -109.72565 1037 ft 145 kts 171°
2026-05-03 21:16 23.18516 -109.72448 850 ft 147 kts 171°
2026-05-03 21:16 23.17492 -109.72333 629 ft 149 kts 172°
2026-05-03 21:16 23.16460 -109.72216 404 ft 148 kts 172°
2026-05-03 21:16 23.15525 -109.72109 367 ft 120 kts 174°
2026-05-03 21:17 23.14912 -109.72044 352 ft 57 kts 173°
2026-05-03 21:17 23.14708 -109.72002 350 ft 38 kts 157°
2026-05-03 21:17 23.14510 -109.71870 344 ft 0 kts 143°
2026-05-03 21:17 23.14507 -109.71868 343 ft 1 kts 143°
2026-05-03 21:18 23.14501 -109.71863 351 ft 2 kts 144°
2026-05-03 21:18 23.14487 -109.71853 346 ft 4 kts 147°
2026-05-03 21:18 23.14473 -109.71825 346 ft 6 kts 93°
2026-05-03 21:18 23.14514 -109.71790 344 ft 11 kts
2026-05-03 21:19 23.14605 -109.71800 350 ft 15 kts 353°
2026-05-03 21:19 23.14713 -109.71812 351 ft 15 kts 355°
2026-05-03 21:19 23.14818 -109.71822 350 ft 15 kts 354°
2026-05-03 21:19 23.14918 -109.71833 352 ft 14 kts 354°
2026-05-03 21:20 23.15015 -109.71844 354 ft 14 kts 354°
2026-05-03 21:20 23.15111 -109.71856 357 ft 15 kts 353°
2026-05-03 21:20 23.15212 -109.71869 359 ft 14 kts 354°
2026-05-03 21:20 23.15310 -109.71879 367 ft 14 kts 356°
2026-05-03 21:21 23.15403 -109.71890 363 ft 13 kts 353°
2026-05-03 21:21 23.15491 -109.71902 365 ft 13 kts 354°
2026-05-03 21:21 23.15548 -109.71907 366 ft 12 kts 355°
2026-05-03 21:21 23.15632 -109.71917 368 ft 12 kts 353°
2026-05-03 21:22 23.15706 -109.71919 370 ft 7 kts 27°
2026-05-03 21:22 23.15716 -109.71871 370 ft 7 kts 91°
2026-05-03 21:22 23.15718 -109.71821 370 ft 7 kts 83°
2026-05-03 21:22 23.15722 -109.71783 370 ft 3 kts 89°
2026-05-03 21:23 23.15722 -109.71779 370 ft 0 kts 88°
2026-05-03 21:23 23.15722 -109.71778 370 ft 0 kts 88°